Location: Monteux
(44.0348°N, 4.9972°E)
Time: 16:38:35
(UTC+00:00)

Cosmos 2285 Rocket - Pass Details

Date: 30 November 2020
Orbit: 971 x 998 km, 74.0° (Epoch: 17 January)

Event Time Altitude Azimuth Distance (km) Brightness Sun altitude
Rises 16:57:46 0° 340° (NNW) 3,716 7.0 -9.6°
Reaches altitude 10° 17:00:21 10° 342° (NNW) 2,760 6.4 -10.1°
Maximum altitude 17:06:46 77° 69° (ENE) 1,013 4.0 -11.2°
Drops below altitude 10° 17:13:05 10° 155° (SSE) 2,723 6.3 -12.2°
Sets 17:15:37 0° 157° (SSE) 3,664 7.0 -12.7°
